Mt. Lincoln Summit Weather observations

Data are for 10 minute period ending at time listed.
 Day   Time   Solar   Ave.   Ave.  Ave.  Vector    Max.   Stn.  
  of    of     Rad.   Air    Rel.  Wind   Wind     Wind   Baro.  
Year   Day            Temp.  Hum.  Speed  Dir.     Gust   Pres. 
2016   (PST)   W/m2    F      %     mph   deg.      mph    mb    
-----------------------------------------------------------------
 211    0:00  999.0    68   50.1     1    159.1     1.3   583.60
 211    0:10  999.0    68   50.1     1    156.4     1.0   583.40
 211    0:20  999.0    68   49.8     1    110.9     1.5   583.80
 211    0:30  999.0    67   49.6     1    103.6     1.7   582.80
 211    0:40  999.0    66   49.4     1    100.2     1.9   584.60
 211    0:50  999.0    66   49.5     1    104.6     1.9   585.20
 211    1:00  999.0    65   49.4     1     99.4     1.8   582.70
 211    1:10  999.0    65   49.3     1    100.2     1.6   582.90
 211    1:20  999.0    65   49.4     1     99.6     1.6   583.10
 211    1:30  999.0    65   49.3     2     90.8     2.2   583.90
 211    1:40  999.0    65   49.3     1     90.9     1.8   582.00
 211    1:50  999.0    65   49.2     1     88.8     1.5   582.50
 211    2:00  999.0    65   49.1     1     84.5     1.3   580.00
 211    2:10  999.0    65   49.1     1     85.2     1.1   582.00
 211    2:20  999.0    65   49.1     1     81.1     1.1   581.90
 211    2:30  999.0    65   49.3     1     83.9     1.5   581.30
 211    2:40  999.0    65   49.2     1     84.2     1.6   581.50
 211    2:50  999.0    64   49.0     1     89.3     1.7   581.30
 211    3:00  999.0    64   49.1     1     90.5     1.9   580.20
 211    3:10  999.0    64   49.2     2     88.9     1.9   581.60
 211    3:20  999.0    64   49.1     1     85.3     1.9   583.10
 211    3:30  999.0    64   49.1     1     82.2     1.9   581.40
 211    3:40  999.0    64   49.0     1     81.7     2.3   581.20
 211    3:50  999.0    64   49.1     1     83.9     2.1   583.00
 211    4:00  999.0    64   49.2     2     89.2     1.9   583.30
 211    4:10  999.0    64   49.3     1     92.1     1.8   580.10
 211    4:20  999.0    64   49.3     2     96.1     1.8   580.30
 211    4:30  999.0    64   49.2     2     97.9     2.0   578.50
 211    4:40  999.0    64   49.3     1     93.2     1.7   578.40
 211    4:50  999.0    64   49.2     2     87.0     1.9   580.10
 211    5:00  999.0    64   49.2     2     86.9     2.0   579.70
 211    5:10  999.0    64   49.1     1     84.0     1.8   581.30
 211    5:20  999.0    64   49.2     2     83.5     1.7   578.00
 211    5:30  999.0    65   49.0     2     88.7     2.0   578.30
 211    5:40  999.0    67   48.5     2     95.9     2.0   578.90
 211    5:50  999.0    69   47.9     2     94.7     2.1   578.90
 211    6:00  999.0    71   47.2     1    100.8     1.9   579.90
 211    6:10  999.0    73   46.5     1     97.2     1.8   575.60
 211    6:20  999.0    74   46.0     1    100.3     1.7   577.40
 211    6:30  999.0    76   45.6     1    116.7     1.9   576.90
 211    6:40  999.0    78   45.1     2    120.9     2.2   578.50
 211    6:50  999.0    78   45.1     2    122.3     2.4   578.30
 211    7:00  999.0    80   45.3     1    138.8     1.7   579.70
 211    7:10  999.0    82   45.2     0    148.7     0.9   579.10
 211    7:20  999.0    83   44.8     0    157.8     0.8   585.20
 211    7:30  999.0    84   44.5     1    169.6     1.5   585.20
 211    7:40  999.0    83   44.5     1    160.6     1.3   586.90
 211    7:50  999.0    84   44.8     1    157.0     1.3   584.60
 211    8:00  999.0    84   44.7     1    160.3     1.3   588.00
 211    8:10  999.0    84   44.7     1    160.0     1.9   591.60
 211    8:20  999.0    85   44.9     1    183.5     1.5   591.80
 211    8:30  999.0    84   44.9     1    182.8     1.5   590.80
 211    8:40  999.0    82   45.0     1    204.7     2.3   596.70
 211    8:50  999.0    81   45.1     1    214.5     2.3   595.40
 211    9:00  999.0    79   45.2     2    213.2     2.5   597.90
 211    9:10  999.0    78   45.9     2    214.0     2.9   599.50
 211    9:20  999.0    76   46.5     2    220.6     2.9   601.40
 211    9:30  999.0    76   47.2     2    213.2     3.3   603.50
 211    9:40  999.0    76   47.5     2    216.4     3.7   603.50
 211    9:50  999.0    76   47.5     2    223.7     3.2   606.90
 211   10:00  999.0    75   48.0     1    251.3     2.8   608.00
 211   10:10  999.0    75   48.5     3    228.7     4.4   609.30
 211   10:20  999.0    76   48.3     3    223.6     4.4   611.10
 211   10:30  999.0    77   48.4     3    223.6     5.3   611.40
 211   10:40  999.0    77   47.8     4    219.2     5.5   613.30
 211   10:50  999.0    76   48.1     4    228.5     6.8   614.50
 211   11:00  999.0    77   48.7     3    219.4     4.8   616.90
 211   11:10  999.0    78   48.1     3    227.9     5.7   618.50
 211   11:20  999.0    76   48.2     3    234.2     5.5   617.80
 211   11:30  999.0    76   48.9     2    242.8     4.6   618.00
 211   11:40  999.0    77   49.0     3    252.8     5.3   617.00
 211   11:50  999.0    77   49.0     1    270.8     4.2   617.90
 211   12:00  999.0    77   49.0     2    253.9     5.9   618.10
 211   12:10  999.0    77   49.1     2    247.3     4.9   617.70
 211   12:20  999.0    77   49.0     4    242.2     6.7   619.60
 211   12:30  999.0    77   49.2     3    238.3     6.1   619.80
 211   12:40  999.0    77   49.1     3    251.9     7.3   619.50
 211   12:50  999.0    77   49.2     3    269.1     7.0   618.90
 211   13:00  999.0    77   49.5     3    249.0     5.4   619.00
 211   13:10  999.0    77   49.2     3    263.5     5.2   619.70
 211   13:20  999.0    76   49.3     4    259.4     5.8   619.60
 211   13:30  999.0    77   49.7     2    273.6     4.8   619.30
 211   13:40  999.0    78   49.7     3    257.2     6.3   619.30
 211   13:50  999.0    78   49.5     4    247.9     7.9   617.10
 211   14:00  999.0    77   49.4     3    276.9     5.1   617.80
 211   14:10  999.0    77   49.5     3    275.3     6.1   618.50
 211   14:20  999.0    77   49.5     3    255.3     8.8   619.60
 211   14:30  999.0    77   49.3     3    262.6     6.8   619.30
 211   14:40  999.0    77   49.4     2    277.1     4.8   619.20
 211   14:50  999.0    77   49.2     2    276.4     4.7   617.80
 211   15:00  999.0    77   49.3     2    299.9     3.5   618.20
 211   15:10  999.0    78   49.2     2    287.0     4.3   617.60
 211   15:20  999.0    77   49.1     2    286.5     5.0   618.40
 211   15:30  999.0    77   49.1     2    276.9     5.1   618.20
 211   15:40  999.0    77   49.2     2    274.3     6.2   617.80
 211   15:50  999.0    77   49.2     3    263.7     6.6   619.30
 211   16:00  999.0    76   49.2     3    276.1     4.4   617.70
 211   16:10  999.0    76   49.3     3    268.9     5.3   617.70
 211   16:20  999.0    75   49.3     3    275.9     5.0   617.20
 211   16:30  999.0    74   49.3     3    271.4     6.4   615.40
 211   16:40  999.0    74   49.3     3    268.5     5.2   613.30
 211   16:50  999.0    74   49.4     5    251.4     7.1   613.50
 211   17:00  999.0    73   49.4     4    258.7     7.1   613.50
 211   17:10  999.0    73   49.3     4    255.4     7.2   612.30

Return to Mt. Lincoln graphs page.


Western Regional Climate Center,wrcc@dri.edu